Вернуться в каталог

STARLINK-34791

АктивенСвязьVLEO
NORAD 65891·PAYLOAD·🇺🇸 United States

Запущен Oct 7, 2025 с Cape Canaveral Space Force Station

Loading…

Ближайшие Пролёты (ближайшие 24 часа)

TLE

СвежийSource: CelesTrak SupGP

Эпоха: Sep 14, 2026, 14:51 UTC

1 65891C 25224K   26257.61923611  .00001888  00000+0  55744-4 0  2575
2 65891  53.1579 213.1946 0001422 102.6702  75.8357 15.34405577    11

Отслеживайте STARLINK-34791 в реальном времени с AllMySat

Download on the App Store